Time,TemperatureF,DewpointF,PressureIn,WindDirection,WindDirectionDegrees,WindSpeedMPH,WindSpeedGustMPH,Humidity,HourlyPrecipIn,Conditions,Clouds,dailyrainin,SoftwareType,DateUTC
2013-03-12 00:03:00,36.0,34.0,29.76,West,269,5.0,10.0,91,0.00,,,0.40,,2013-03-12 04:03:00,
2013-03-12 00:13:00,36.0,34.0,29.76,West,269,5.0,10.0,91,0.00,,,0.40,,2013-03-12 04:13:00,
2013-03-12 00:22:00,36.0,34.0,29.76,South,180,4.0,13.0,91,0.00,,,0.40,,2013-03-12 04:22:00,
2013-03-12 00:32:00,35.0,33.0,29.76,West,265,5.0,12.0,91,0.00,,,0.40,,2013-03-12 04:32:00,
2013-03-12 00:43:00,35.0,33.0,29.76,West,265,5.0,12.0,91,0.00,,,0.40,,2013-03-12 04:43:00,
2013-03-12 00:52:00,35.0,33.0,29.77,WSW,253,3.0,12.0,91,0.00,,,0.40,,2013-03-12 04:52:00,
2013-03-12 01:03:00,36.0,34.0,29.77,West,268,6.0,11.0,91,0.00,,,0.40,,2013-03-12 05:03:00,
2013-03-12 01:12:00,36.0,34.0,29.77,West,268,6.0,11.0,91,0.00,,,0.40,,2013-03-12 05:12:00,
2013-03-12 01:22:00,35.0,33.0,29.78,West,269,3.0,9.0,92,0.00,,,0.40,,2013-03-12 05:22:00,
2013-03-12 01:32:00,35.0,33.0,29.78,West,273,3.0,13.0,92,0.00,,,0.40,,2013-03-12 05:32:00,
2013-03-12 01:42:00,35.0,33.0,29.78,West,273,3.0,13.0,92,0.00,,,0.40,,2013-03-12 05:42:00,
2013-03-12 01:52:00,35.0,33.0,29.78,WSW,258,4.0,9.0,92,0.00,,,0.40,,2013-03-12 05:52:00,
2013-03-12 02:02:00,34.0,32.0,29.79,West,276,4.0,12.0,94,0.00,,,0.40,,2013-03-12 06:02:00,
2013-03-12 02:12:00,34.0,32.0,29.79,West,276,4.0,12.0,94,0.00,,,0.40,,2013-03-12 06:12:00,
2013-03-12 02:22:00,34.0,32.0,29.79,West,279,5.0,16.0,91,0.01,,,0.41,,2013-03-12 06:22:00,
2013-03-12 02:32:00,34.0,31.0,29.80,WSW,239,8.0,19.0,88,0.01,,,0.41,,2013-03-12 06:32:00,
2013-03-12 02:42:00,34.0,31.0,29.80,WSW,239,8.0,19.0,88,0.01,,,0.41,,2013-03-12 06:42:00,
2013-03-12 02:52:00,34.0,31.0,29.80,West,272,7.0,21.0,88,0.01,,,0.41,,2013-03-12 06:52:00,
2013-03-12 03:02:00,34.0,31.0,29.80,West,273,7.0,16.0,88,0.01,,,0.41,,2013-03-12 07:02:00,
2013-03-12 03:12:00,34.0,31.0,29.80,West,273,7.0,16.0,88,0.01,,,0.41,,2013-03-12 07:12:00,
2013-03-12 03:22:00,34.0,31.0,29.80,WNW,294,5.0,13.0,88,0.00,,,0.41,,2013-03-12 07:22:00,
2013-03-12 03:32:00,34.0,31.0,29.80,West,266,3.0,18.0,87,0.00,,,0.41,,2013-03-12 07:32:00,
2013-03-12 03:42:00,34.0,31.0,29.80,West,266,3.0,18.0,87,0.00,,,0.41,,2013-03-12 07:42:00,
2013-03-12 03:52:00,34.0,31.0,29.81,SSE,162,5.0,15.0,87,0.00,,,0.41,,2013-03-12 07:52:00,
2013-03-12 04:02:00,34.0,31.0,29.81,WSW,249,8.0,16.0,87,0.00,,,0.41,,2013-03-12 08:02:00,
2013-03-12 04:13:00,34.0,31.0,29.81,WSW,249,8.0,16.0,87,0.00,,,0.41,,2013-03-12 08:13:00,
2013-03-12 04:22:00,34.0,31.0,29.81,WSW,238,7.0,16.0,89,0.00,,,0.41,,2013-03-12 08:22:00,
2013-03-12 04:33:00,34.0,31.0,29.81,WNW,297,6.0,14.0,88,0.00,,,0.41,,2013-03-12 08:33:00,
2013-03-12 04:42:00,34.0,31.0,29.81,WNW,297,6.0,14.0,88,0.00,,,0.41,,2013-03-12 08:42:00,
2013-03-12 04:52:00,33.0,30.0,29.81,West,267,5.0,12.0,89,0.00,,,0.41,,2013-03-12 08:52:00,
2013-03-12 05:03:00,33.0,30.0,29.82,West,279,5.0,16.0,89,0.00,,,0.41,,2013-03-12 09:03:00,
2013-03-12 05:12:00,33.0,30.0,29.82,West,279,5.0,16.0,89,0.00,,,0.41,,2013-03-12 09:12:00,
2013-03-12 05:22:00,33.0,30.0,29.82,West,271,4.0,11.0,89,0.00,,,0.41,,2013-03-12 09:22:00,
2013-03-12 05:33:00,33.0,30.0,29.83,West,277,4.0,9.0,90,0.00,,,0.41,,2013-03-12 09:33:00,
2013-03-12 05:42:00,33.0,30.0,29.83,West,277,4.0,9.0,90,0.00,,,0.41,,2013-03-12 09:42:00,
2013-03-12 05:52:00,33.0,30.0,29.83,West,270,6.0,15.0,89,0.00,,,0.41,,2013-03-12 09:52:00,
2013-03-12 06:02:00,33.0,30.0,29.84,WNW,298,6.0,11.0,89,0.00,,,0.41,,2013-03-12 10:02:00,
2013-03-12 06:12:00,33.0,30.0,29.84,WNW,298,6.0,11.0,89,0.00,,,0.41,,2013-03-12 10:12:00,
2013-03-12 06:22:00,33.0,30.0,29.84,WNW,289,4.0,12.0,89,0.00,,,0.41,,2013-03-12 10:22:00,
2013-03-12 06:32:00,33.0,30.0,29.85,West,263,4.0,16.0,90,0.00,,,0.41,,2013-03-12 10:32:00,
2013-03-12 06:42:00,33.0,30.0,29.85,West,263,4.0,16.0,90,0.00,,,0.41,,2013-03-12 10:42:00,
2013-03-12 06:53:00,33.0,30.0,29.85,WSW,241,6.0,11.0,90,0.00,,,0.41,,2013-03-12 10:53:00,
2013-03-12 07:02:00,33.0,30.0,29.85,West,279,6.0,14.0,90,0.00,,,0.37,,2013-03-12 11:02:00,
2013-03-12 07:12:00,33.0,30.0,29.85,West,279,6.0,14.0,90,0.00,,,0.37,,2013-03-12 11:12:00,
2013-03-12 07:22:00,33.0,30.0,29.85,WNW,291,4.0,10.0,90,0.00,,,0.37,,2013-03-12 11:22:00,
2013-03-12 07:32:00,33.0,30.0,29.86,West,278,3.0,10.0,90,0.00,,,0.37,,2013-03-12 11:32:00,
2013-03-12 07:42:00,33.0,30.0,29.86,West,278,3.0,10.0,90,0.00,,,0.37,,2013-03-12 11:42:00,
2013-03-12 07:52:00,33.0,30.0,29.86,WSW,245,3.0,9.0,89,0.00,,,0.37,,2013-03-12 11:52:00,
2013-03-12 08:03:00,33.0,30.0,29.86,West,259,3.0,9.0,89,0.00,,,0.35,,2013-03-12 12:03:00,
2013-03-12 08:12:00,33.0,30.0,29.86,West,259,3.0,9.0,89,0.00,,,0.35,,2013-03-12 12:12:00,
2013-03-12 08:22:00,33.0,30.0,29.87,West,259,6.0,11.0,88,0.00,,,0.35,,2013-03-12 12:22:00,
2013-03-12 08:32:00,33.0,30.0,29.87,West,259,4.0,10.0,88,0.00,,,0.35,,2013-03-12 12:32:00,
2013-03-12 08:42:00,33.0,30.0,29.87,West,259,4.0,10.0,88,0.00,,,0.35,,2013-03-12 12:42:00,
2013-03-12 08:52:00,33.0,30.0,29.88,West,259,3.0,11.0,88,0.00,,,0.35,,2013-03-12 12:52:00,
2013-03-12 09:02:00,33.0,30.0,29.89,West,279,4.0,10.0,87,0.00,,,0.35,,2013-03-12 13:02:00,
2013-03-12 09:12:00,33.0,30.0,29.89,West,279,4.0,10.0,87,0.00,,,0.35,,2013-03-12 13:12:00,
2013-03-12 09:22:00,33.0,30.0,29.89,West,279,4.0,10.0,87,0.00,,,0.35,,2013-03-12 13:22:00,
2013-03-12 09:32:00,33.0,30.0,29.90,West,267,3.0,9.0,89,0.00,,,0.35,,2013-03-12 13:32:00,
2013-03-12 09:42:00,33.0,30.0,29.90,West,267,3.0,9.0,89,0.00,,,0.35,,2013-03-12 13:42:00,
2013-03-12 09:52:00,32.0,29.0,29.90,West,279,4.0,9.0,89,0.00,,,0.35,,2013-03-12 13:52:00,
2013-03-12 10:02:00,32.0,29.0,29.90,West,280,6.0,13.0,88,0.00,,,0.34,,2013-03-12 14:02:00,
2013-03-12 10:12:00,32.0,29.0,29.90,West,280,6.0,13.0,88,0.00,,,0.34,,2013-03-12 14:12:00,
2013-03-12 10:22:00,32.0,29.0,29.91,SW,221,4.0,13.0,87,0.00,,,0.34,,2013-03-12 14:22:00,
2013-03-12 10:33:00,32.0,28.0,29.91,West,265,4.0,9.0,85,0.00,,,0.34,,2013-03-12 14:33:00,
2013-03-12 10:42:00,32.0,28.0,29.91,West,265,4.0,9.0,85,0.00,,,0.34,,2013-03-12 14:42:00,
2013-03-12 10:53:00,32.0,28.0,29.91,WNW,287,3.0,11.0,86,0.00,,,0.34,,2013-03-12 14:53:00,
2013-03-12 11:02:00,32.0,28.0,29.92,WSW,237,5.0,13.0,85,0.00,,,0.33,,2013-03-12 15:02:00,
2013-03-12 11:13:00,32.0,28.0,29.92,WSW,237,5.0,13.0,85,0.00,,,0.33,,2013-03-12 15:13:00,
2013-03-12 11:22:00,32.0,28.0,29.92,SW,225,6.0,11.0,85,0.00,,,0.33,,2013-03-12 15:22:00,
2013-03-12 11:32:00,32.0,28.0,29.92,WNW,289,7.0,11.0,84,0.00,,,0.33,,2013-03-12 15:32:00,
2013-03-12 11:42:00,32.0,28.0,29.92,WNW,289,7.0,11.0,84,0.00,,,0.33,,2013-03-12 15:42:00,
2013-03-12 11:53:00,32.0,28.0,29.91,WNW,285,5.0,14.0,85,0.00,,,0.33,,2013-03-12 15:53:00,
2013-03-12 12:03:00,32.0,28.0,29.93,SW,233,2.0,10.0,86,0.00,,,0.33,,2013-03-12 16:03:00,
2013-03-12 12:12:00,32.0,28.0,29.93,SW,233,2.0,10.0,86,0.00,,,0.33,,2013-03-12 16:12:00,
2013-03-12 12:23:00,32.0,28.0,29.93,WNW,290,5.0,12.0,86,0.00,,,0.33,,2013-03-12 16:23:00,
2013-03-12 12:33:00,32.0,28.0,29.93,West,269,3.0,10.0,86,0.00,,,0.33,,2013-03-12 16:33:00,
2013-03-12 12:43:00,32.0,28.0,29.93,West,269,3.0,10.0,86,0.00,,,0.33,,2013-03-12 16:43:00,
2013-03-12 12:53:00,32.0,28.0,29.94,WSW,255,4.0,10.0,84,0.00,,,0.33,,2013-03-12 16:53:00,
2013-03-12 13:03:00,32.0,28.0,29.94,SW,228,2.0,11.0,85,0.00,,,0.33,,2013-03-12 17:03:00,
2013-03-12 13:13:00,32.0,28.0,29.94,SW,228,2.0,11.0,85,0.00,,,0.33,,2013-03-12 17:13:00,
2013-03-12 13:23:00,32.0,28.0,29.93,SW,227,2.0,12.0,86,0.00,,,0.33,,2013-03-12 17:23:00,
2013-03-12 13:34:00,32.0,28.0,29.94,SW,232,3.0,10.0,85,0.00,,,0.33,,2013-03-12 17:34:00,
2013-03-12 13:43:00,32.0,28.0,29.94,SW,232,3.0,10.0,85,0.00,,,0.33,,2013-03-12 17:43:00,
2013-03-12 13:54:00,32.0,28.0,29.94,WNW,298,5.0,13.0,85,0.00,,,0.33,,2013-03-12 17:54:00,
2013-03-12 14:03:00,32.0,28.0,29.94,West,271,3.0,11.0,84,0.00,,,0.27,,2013-03-12 18:03:00,
2013-03-12 14:13:00,33.0,28.0,29.93,West,276,6.0,13.0,81,0.00,,,0.27,,2013-03-12 18:13:00,
2013-03-12 14:23:00,33.0,28.0,29.93,West,276,6.0,13.0,81,0.00,,,0.27,,2013-03-12 18:23:00,
2013-03-12 14:33:00,33.0,27.0,29.93,WNW,300,5.0,12.0,78,0.00,,,0.27,,2013-03-12 18:33:00,
2013-03-12 14:42:00,33.0,27.0,29.93,WNW,300,5.0,12.0,78,0.00,,,0.27,,2013-03-12 18:42:00,
2013-03-12 14:53:00,34.0,28.0,29.93,SW,215,4.0,11.0,77,0.00,,,0.27,,2013-03-12 18:53:00,
2013-03-12 15:03:00,34.0,28.0,29.93,WSW,248,3.0,15.0,80,0.00,,,0.19,,2013-03-12 19:03:00,
2013-03-12 15:13:00,34.0,28.0,29.93,WSW,248,3.0,15.0,80,0.00,,,0.19,,2013-03-12 19:13:00,
2013-03-12 15:23:00,34.0,28.0,29.93,SW,236,4.0,11.0,78,0.00,,,0.19,,2013-03-12 19:23:00,
2013-03-12 15:33:00,35.0,29.0,29.92,West,281,7.0,16.0,77,0.00,,,0.19,,2013-03-12 19:33:00,
2013-03-12 15:43:00,35.0,29.0,29.92,West,281,7.0,16.0,77,0.00,,,0.19,,2013-03-12 19:43:00,
2013-03-12 15:53:00,35.0,29.0,29.92,West,276,6.0,17.0,78,0.00,,,0.19,,2013-03-12 19:53:00,
2013-03-12 16:02:00,35.0,29.0,29.92,West,276,6.0,17.0,78,0.00,,,0.19,,2013-03-12 20:02:00,
2013-03-12 16:13:00,35.0,29.0,29.92,West,276,6.0,17.0,78,0.00,,,0.19,,2013-03-12 20:13:00,
2013-03-12 16:23:00,35.0,29.0,29.93,WSW,244,4.0,12.0,78,0.00,,,0.12,,2013-03-12 20:23:00,
2013-03-12 16:33:00,36.0,29.0,29.93,WNW,297,4.0,16.0,77,0.00,,,0.12,,2013-03-12 20:33:00,
2013-03-12 16:42:00,36.0,29.0,29.93,WNW,297,4.0,16.0,77,0.00,,,0.12,,2013-03-12 20:42:00,
2013-03-12 16:53:00,36.0,29.0,29.93,West,275,4.0,15.0,77,0.00,,,0.12,,2013-03-12 20:53:00,
2013-03-12 17:03:00,36.0,29.0,29.93,WNW,300,3.0,9.0,77,0.00,,,0.07,,2013-03-12 21:03:00,
2013-03-12 17:13:00,36.0,29.0,29.93,WNW,300,3.0,9.0,77,0.00,,,0.07,,2013-03-12 21:13:00,
2013-03-12 17:22:00,36.0,29.0,29.93,WNW,300,3.0,9.0,77,0.00,,,0.07,,2013-03-12 21:22:00,
2013-03-12 17:33:00,36.0,29.0,29.93,WNW,300,3.0,9.0,77,0.00,,,0.07,,2013-03-12 21:33:00,
2013-03-12 17:43:00,36.0,29.0,29.93,WNW,300,3.0,9.0,77,0.00,,,0.07,,2013-03-12 21:43:00,
2013-03-12 17:52:00,36.0,29.0,29.93,WNW,283,4.0,9.0,76,0.00,,,0.07,,2013-03-12 21:52:00,
2013-03-12 18:03:00,36.0,29.0,29.93,WNW,294,3.0,10.0,77,0.00,,,0.07,,2013-03-12 22:03:00,
2013-03-12 18:13:00,36.0,29.0,29.93,WNW,294,3.0,10.0,77,0.00,,,0.07,,2013-03-12 22:13:00,
2013-03-12 18:23:00,36.0,29.0,29.93,WNW,298,2.0,9.0,77,0.00,,,0.03,,2013-03-12 22:23:00,
2013-03-12 18:33:00,36.0,29.0,29.93,WSW,246,6.0,14.0,76,0.00,,,0.03,,2013-03-12 22:33:00,
2013-03-12 18:43:00,36.0,29.0,29.93,WSW,246,6.0,14.0,76,0.00,,,0.03,,2013-03-12 22:43:00,
2013-03-12 18:53:00,36.0,29.0,29.94,West,273,7.0,18.0,75,0.00,,,0.03,,2013-03-12 22:53:00,
2013-03-12 19:03:00,36.0,29.0,29.94,WNW,293,7.0,16.0,76,0.00,,,0.03,,2013-03-12 23:03:00,
2013-03-12 19:12:00,36.0,29.0,29.94,WNW,293,7.0,16.0,76,0.00,,,0.03,,2013-03-12 23:12:00,
2013-03-12 19:23:00,36.0,29.0,29.95,NW,309,7.0,17.0,75,0.00,,,0.01,,2013-03-12 23:23:00,
2013-03-12 19:34:00,35.0,28.0,29.95,West,279,6.0,13.0,76,0.00,,,0.01,,2013-03-12 23:34:00,
2013-03-12 19:43:00,35.0,28.0,29.95,West,279,6.0,13.0,76,0.00,,,0.01,,2013-03-12 23:43:00,
2013-03-12 19:52:00,35.0,28.0,29.95,WNW,290,5.0,15.0,74,0.00,,,0.01,,2013-03-12 23:52:00,
2013-03-12 20:03:00,34.0,27.0,29.96,West,272,4.0,9.0,76,0.00,,,0.01,,2013-03-13 00:03:00,
2013-03-12 20:13:00,34.0,27.0,29.96,West,272,4.0,9.0,76,0.00,,,0.01,,2013-03-13 00:13:00,
2013-03-12 20:23:00,34.0,27.0,29.96,WSW,250,1.0,9.0,76,0.00,,,0.01,,2013-03-13 00:23:00,
2013-03-12 20:33:00,33.0,27.0,29.96,WNW,286,1.0,7.0,77,0.00,,,0.01,,2013-03-13 00:33:00,
2013-03-12 20:42:00,33.0,27.0,29.96,WNW,286,1.0,7.0,77,0.00,,,0.01,,2013-03-13 00:42:00,
2013-03-12 20:53:00,33.0,27.0,29.96,West,275,0.0,4.0,79,0.00,,,0.01,,2013-03-13 00:53:00,
2013-03-12 21:03:00,33.0,28.0,29.96,SW,226,0.0,4.0,80,0.00,,,0.01,,2013-03-13 01:03:00,
2013-03-12 21:13:00,33.0,28.0,29.96,SW,226,0.0,4.0,80,0.00,,,0.01,,2013-03-13 01:13:00,
2013-03-12 21:22:00,32.0,27.0,29.96,WSW,240,0.0,3.0,80,0.00,,,0.01,,2013-03-13 01:22:00,
2013-03-12 21:33:00,32.0,27.0,29.96,WSW,240,0.0,1.0,80,0.00,,,0.01,,2013-03-13 01:33:00,
2013-03-12 21:43:00,32.0,27.0,29.96,WSW,240,0.0,1.0,80,0.00,,,0.01,,2013-03-13 01:43:00,
2013-03-12 21:52:00,32.0,27.0,29.96,SW,219,0.0,3.0,81,0.00,,,0.01,,2013-03-13 01:52:00,
2013-03-12 22:03:00,33.0,28.0,29.96,WNW,288,1.0,5.0,82,0.00,,,0.01,,2013-03-13 02:03:00,
2013-03-12 22:12:00,33.0,28.0,29.96,WNW,288,1.0,5.0,82,0.00,,,0.01,,2013-03-13 02:12:00,
2013-03-12 22:22:00,33.0,28.0,29.97,SW,235,4.0,8.0,83,0.00,,,0.01,,2013-03-13 02:22:00,
2013-03-12 22:32:00,33.0,31.0,29.97,West,277,3.0,6.0,91,0.00,,,0.01,,2013-03-13 02:32:00,
2013-03-12 22:43:00,33.0,31.0,29.97,West,277,3.0,6.0,91,0.00,,,0.01,,2013-03-13 02:43:00,
2013-03-12 22:52:00,32.0,30.0,29.97,WNW,288,1.0,6.0,93,0.00,,,0.01,,2013-03-13 02:52:00,
2013-03-12 23:02:00,32.0,30.0,29.96,SW,219,1.0,5.0,94,0.00,,,0.01,,2013-03-13 03:02:00,
2013-03-12 23:13:00,32.0,30.0,29.96,SW,219,1.0,5.0,94,0.00,,,0.01,,2013-03-13 03:13:00,
2013-03-12 23:22:00,32.0,30.0,29.97,West,278,1.0,6.0,94,0.00,,,0.01,,2013-03-13 03:22:00,
2013-03-12 23:32:00,32.0,30.0,29.97,West,269,2.0,8.0,93,0.00,,,0.01,,2013-03-13 03:32:00,
2013-03-12 23:42:00,32.0,30.0,29.97,West,269,2.0,8.0,93,0.00,,,0.01,,2013-03-13 03:42:00,
2013-03-12 23:52:00,32.0,30.0,29.97,West,261,3.0,9.0,92,0.00,,,0.01,,2013-03-13 03:52:00,